This is the latest recevied weather packets stored in our database for station/object KD7JB. If no packets are shown the sender has not sent any weather packets the latest 10 day(s).
| Time | Temp. | Humidity | Pressure | Rain* | Wind** | Luminosity | Snow |
|---|---|---|---|---|---|---|---|
| 1777956002 | 16.67° C | 51% | 1172.2 hPa | 0 mm | - | 0 W/m² | - |
| 1777955698 | 17.22° C | 50% | 1172.2 hPa | 0 mm | - | 0 W/m² | - |
| 1777955395 | 17.22° C | 49% | 1172.4 hPa | 0 mm | - | 0 W/m² | - |
| 1777955091 | 17.22° C | 47% | 1172.2 hPa | 0 mm | - | 0 W/m² | - |
| 1777954788 | 17.22° C | 47% | 1172.1 hPa | 0 mm | - | 0 W/m² | - |
| 1777954485 | 17.22° C | 46% | 1172.1 hPa | 0 mm | - | 0 W/m² | - |
| 1777954183 | 17.78° C | 44% | 1171.9 hPa | 0 mm | - | 0 W/m² | - |
| 1777953880 | 17.78° C | 43% | 1172 hPa | 0 mm | - | 0 W/m² | - |
| 1777953576 | 17.22° C | 43% | 1172 hPa | 0 mm | - | 0 W/m² | - |
| 1777953272 | 17.22° C | 43% | 1172.1 hPa | 0 mm | - | 0 W/m² | - |
| 1777952970 | 17.78° C | 42% | 1171.8 hPa | 0 mm | - | 0 W/m² | - |
| 1777952666 | 17.22° C | 43% | 1171.9 hPa | 0 mm | - | 0 W/m² | - |
| 1777952364 | 17.22° C | 42% | 1171.8 hPa | 0 mm | - | 0 W/m² | - |
| 1777952060 | 17.78° C | 43% | 1171.6 hPa | 0 mm | - | 0 W/m² | - |
| 1777951758 | 17.78° C | 43% | 1171.4 hPa | 0 mm | - | 1 W/m² | - |
| 1777951455 | 17.78° C | 43% | 1171.6 hPa | 0 mm | - | 1 W/m² | - |
| 1777951152 | 17.78° C | 43% | 1171.6 hPa | 0 mm | - | 3 W/m² | - |
| 1777950849 | 17.78° C | 43% | 1171.6 hPa | 0 mm | - | 4 W/m² | - |
| 1777950546 | 18.33° C | 42% | 1171.3 hPa | 0 mm | - | 7 W/m² | - |
| 1777950241 | 18.33° C | 42% | 1171.4 hPa | 0 mm | - | 10 W/m² | - |
| 1777949937 | 18.89° C | 42% | 1171.4 hPa | 0 mm | - | 12 W/m² | - |
| 1777949635 | 18.89° C | 41% | 1171.2 hPa | 0 mm | - | 15 W/m² | - |
| 1777949334 | 19.44° C | 40% | 1171.4 hPa | 0 mm | - | 19 W/m² | - |
| 1777949031 | 19.44° C | 40% | 1171.2 hPa | 0 mm | - | 24 W/m² | - |
| 1777948728 | 19.44° C | 40% | 1171.3 hPa | 0 mm | - | 26 W/m² | - |
* Rain latest hour (hover to see other rain measurements)
** Current wind speed in m/s (hover to see current wind gust speed)